TimeCST,TemperatureF,Dew PointF,Humidity,Sea Level PressureIn,VisibilityMPH,Wind Direction,Wind SpeedMPH,Gust SpeedMPH,PrecipitationIn,Events,Conditions,WindDirDegrees,DateUTC
12:01 AM,1.4,-2.2,85,30.33,1.2,Calm,Calm,-,N/A,,Partly Cloudy,0,2013-03-02 06:01:00
12:04 AM,1.4,-2.2,85,30.33,0.8,Calm,Calm,-,N/A,,Mist,0,2013-03-02 06:04:00
12:31 AM,-0.4,-2.2,92,30.33,0.2,SW,3.5,-,N/A,Fog,Light Freezing Fog,230,2013-03-02 06:31:00
12:53 AM,-0.0,-2.0,91,30.43,0.2,Calm,Calm,-,N/A,Fog,Light Freezing Fog,0,2013-03-02 06:53:00
1:53 AM,1.0,-2.0,87,30.41,0.2,Calm,Calm,-,N/A,Fog,Light Freezing Fog,0,2013-03-02 07:53:00
2:04 AM,1.4,-2.2,85,30.31,0.2,SSW,3.5,-,N/A,Fog,Light Freezing Fog,200,2013-03-02 08:04:00
2:46 AM,3.2,-0.4,85,30.30,1.0,Calm,Calm,-,N/A,,Mist,0,2013-03-02 08:46:00
2:50 AM,3.2,-0.4,85,30.30,2.0,Calm,Calm,-,N/A,,Overcast,0,2013-03-02 08:50:00
2:53 AM,3.0,-0.0,87,30.39,1.5,SW,3.5,-,N/A,,Overcast,230,2013-03-02 08:53:00
2:57 AM,3.2,-0.4,85,30.31,0.8,WSW,3.5,-,N/A,,Mist,240,2013-03-02 08:57:00
3:16 AM,3.2,1.4,92,30.30,0.2,SSW,4.6,-,N/A,Fog,Light Freezing Fog,210,2013-03-02 09:16:00
3:30 AM,5.0,1.4,85,30.30,1.0,SSW,4.6,-,N/A,,Mist,210,2013-03-02 09:30:00
3:34 AM,5.0,1.4,85,30.30,2.0,SSW,4.6,-,N/A,,Overcast,210,2013-03-02 09:34:00
3:46 AM,5.0,1.4,85,30.30,3.0,SSW,4.6,-,N/A,,Overcast,200,2013-03-02 09:46:00
3:53 AM,5.0,1.0,84,30.37,5.0,South,3.5,-,N/A,,Overcast,190,2013-03-02 09:53:00
4:53 AM,7.0,3.0,84,30.34,8.0,SSE,6.9,-,N/A,,Overcast,160,2013-03-02 10:53:00
5:02 AM,6.8,3.2,85,30.25,8.0,SSE,8.1,-,N/A,,Overcast,150,2013-03-02 11:02:00
5:53 AM,9.0,6.1,88,30.31,9.0,South,6.9,-,N/A,,Overcast,170,2013-03-02 11:53:00
6:53 AM,12.0,8.1,84,30.30,8.0,South,9.2,-,N/A,,Overcast,170,2013-03-02 12:53:00
7:53 AM,15.1,10.9,84,30.29,9.0,SSE,10.4,-,N/A,,Overcast,160,2013-03-02 13:53:00
8:53 AM,17.1,12.9,84,30.29,9.0,SSE,12.7,-,N/A,,Overcast,160,2013-03-02 14:53:00
9:53 AM,19.0,15.1,85,30.27,9.0,SSE,17.3,-,N/A,,Overcast,160,2013-03-02 15:53:00
10:53 AM,21.0,16.0,81,30.26,10.0,South,16.1,-,N/A,,Overcast,170,2013-03-02 16:53:00
11:53 AM,21.9,18.0,85,30.25,10.0,SSE,15.0,-,N/A,,Overcast,150,2013-03-02 17:53:00
12:53 PM,25.0,19.0,78,30.22,10.0,SSE,17.3,-,N/A,,Mostly Cloudy,160,2013-03-02 18:53:00
1:53 PM,27.0,19.0,72,30.19,10.0,South,16.1,-,N/A,,Clear,170,2013-03-02 19:53:00
2:53 PM,27.0,19.9,75,30.17,10.0,South,13.8,-,N/A,,Clear,170,2013-03-02 20:53:00
3:53 PM,28.0,19.9,72,30.15,10.0,South,17.3,-,N/A,,Clear,180,2013-03-02 21:53:00
4:53 PM,28.0,19.9,72,30.14,10.0,South,13.8,-,N/A,,Clear,170,2013-03-02 22:53:00
5:53 PM,26.1,19.0,75,30.13,10.0,South,11.5,-,N/A,,Clear,170,2013-03-02 23:53:00
6:53 PM,24.8,17.6,74,30.06,10.0,South,9.2,-,N/A,,Clear,170,2013-03-03 00:53:00
7:53 PM,23.0,17.1,78,30.13,10.0,South,3.5,-,N/A,,Clear,180,2013-03-03 01:53:00
8:53 PM,21.0,16.0,81,30.12,10.0,Calm,Calm,-,N/A,,Scattered Clouds,0,2013-03-03 02:53:00
9:53 PM,21.0,16.0,81,30.11,10.0,East,3.5,-,N/A,,Overcast,100,2013-03-03 03:53:00
10:53 PM,21.0,16.0,81,30.08,10.0,Calm,Calm,-,N/A,,Mostly Cloudy,0,2013-03-03 04:53:00
11:53 PM,18.0,14.0,84,30.07,10.0,SE,4.6,-,N/A,,Clear,140,2013-03-03 05:53:00